Location: Natural Bridges National Monument
(37.6093°N, 109.9767°W)
Time: 05:38:30
(UTC-06:00)

Cosmos 1727 Rocket - Visible Passes

Search period start: 02 September 2014 00:00
Search period end: 12 September 2014 00:00
Orbit: 962 x 996 km, 82.9° (Epoch: 02 September)

Date Brightness Start Highest point End Pass type
(mag) Time Alt. Az. Time Alt. Az. Time Alt. Az.
02 Sep 6.1 06:12:49 10° NNE 06:18:26 33° ENE 06:23:57 10° SE visible
02 Sep 7.1 21:29:22 10° W 21:32:32 14° WNW 21:35:42 10° NW visible
03 Sep 5.0 20:06:37 10° SSW 20:12:46 55° W 20:19:00 10° N visible
04 Sep 7.1 05:21:43 10° NNE 05:25:20 16° ENE 05:28:55 10° ESE visible
04 Sep 6.2 20:33:59 10° SW 20:39:24 30° WNW 20:44:52 10° NNW visible
05 Sep 6.2 05:46:46 10° NNE 05:52:11 29° ENE 05:57:30 10° SE visible
05 Sep 7.2 21:02:35 10° WSW 21:06:14 16° WNW 21:09:55 10° NNW visible
06 Sep 4.9 06:12:38 10° N 06:18:48 55° E 06:24:53 10° SSE visible
07 Sep 7.1 04:55:58 10° NE 04:59:03 14° ENE 05:02:06 10° E visible
07 Sep 6.1 20:07:34 10° SW 20:13:10 33° WNW 20:18:48 10° NNW visible
08 Sep 6.2 05:20:44 10° NNE 05:25:55 26° ENE 05:31:02 10° SE visible
08 Sep 7.1 20:35:53 10° WSW 20:39:58 18° WNW 20:44:04 10° NNW visible
09 Sep 5.1 05:46:30 10° N 05:52:35 49° E 05:58:34 10° SSE visible
10 Sep 7.1 04:30:21 10° NE 04:32:44 12° ENE 04:35:07 10° E visible
10 Sep 4.0 06:12:44 10° N 06:19:03 88° W 06:25:15 10° S visible
11 Sep 6.3 04:54:43 10° NNE 04:59:39 24° ENE 05:04:32 10° SE visible
11 Sep 7.0 20:09:16 10° WSW 20:13:41 20° WNW 20:18:09 10° NNW visible
